Regional Weather Roundup
Issued by NWS

Home | Current Version | Previous Version | Graphics & Text | Print | Product List | Glossary On
Versions: 1 2 3 4 5 6 7 8 9 10 11 12 13 14 15 16 17 18 19 20 21 22 23 24 25 26 27 28 29 30 31 32 33 34 35 36 37 38 39 40 41 42 43 44 45 46 47 48 49 50
000
ASUS45 KABQ 261910
RWRNM
NEW MEXICO REGIONAL WEATHER ROUNDUP
NATIONAL WEATHER SERVICE ALBUQUERQUE NM
100 PM MDT SAT MAY 26 2018

NOTE: "FAIR" MEANS FEW OR NO CLOUDS BELOW 12,000 FEET AGL WITH NO
       SIGNIFICANT WEATHER OR OBSTRUCTIONS TO VISION.

      THIS PRODUCT IS RELEASED AS TWO VERSIONS.  ONE VERSION NEAR
      THE TOP OF THE HOUR CONTAINING PRELIMINARY DATA FROM ALBUQUERQUE
      AND OTHER STATIONS.  A FINAL VERSION WITH ADDITIONAL DATA IS
      ISSUED ABOUT 10 MINUTES AFTER THE HOUR.

NMZ501-503-504-510>518-262000-
NORTHWEST PLATEAU/NORTHCENTRAL MOUNTAINS

CITY           SKY/WX    TMP DP  RH WIND       PRES   REMARKS
FARMINGTON     FAIR      76  26  15 E5        29.98F
LOS ALAMOS     FAIR      75  14  10 E8        30.16F
SANTA FE       FAIR      80  14   8 MISG      30.08F
TAOS           FAIR      78   8   7 VRB7      30.15F
ANGEL FIRE     FAIR      71  22  15 NW6       30.21F

$$
NMZ402-403-502-505>509-262000-
WESTCENTRAL MOUNTAINS/SOUTHWEST MOUNTAINS

CITY           SKY/WX    TMP DP  RH WIND       PRES   REMARKS
GALLUP         FAIR      78  22  12 S21G28    30.04F
GRANTS         FAIR      76  18  11 SE6       30.11F
SILVER CITY    FAIR      85  26  12 S8G18     30.05F

$$
NMZ407-409-411-412-262000-
SOUTHERN DESERTS

CITY           SKY/WX    TMP DP  RH WIND       PRES   REMARKS
DEMING         FAIR      90  28  11 SW7       29.97F
LAS CRUCES     FAIR      92  20   7 S8G17     29.99F
ALAMOGORDO     FAIR      93  18   6 S13G20    29.96F
T OR C         FAIR      90  16   6 S22G28    29.98F

$$
NMZ519>523-262000-
CENTRAL VALLEYS/CENTRAL HIGHLANDS

CITY           SKY/WX    TMP DP  RH WIND       PRES   REMARKS
ALBUQUERQUE    PTSUNNY   83  21  10 VRB5      30.03F
DOUBLE EAGLE   CLOUDY    82  19   9 VRB5      30.06F
MORIARTY ARPT  FAIR      87  19   8 S10       30.09F
CLINES CORNERS FAIR      81  17   9 S13G23    30.16F
BELEN          FAIR      85  16   7 S8        30.02F
SOCORRO        FAIR      87  18   8 SE7       29.99F

$$
NMZ524>526-539-540-262000-
SOUTHCENTRAL MOUNTAINS

CITY           SKY/WX    TMP DP  RH WIND       PRES   REMARKS
RUIDOSO        FAIR      82  19   9 SE14G20   30.16F

$$
NMZ527>531-262000-
NORTHEAST HIGHLANDS/NORTHEAST PLAINS

CITY           SKY/WX    TMP DP  RH WIND       PRES   REMARKS
LAS VEGAS      FAIR      83  11   6 S15       30.10F
RATON          FAIR      86  17   8 S17       30.04F
CLAYTON        FAIR      87  46  24 S14       29.96F

$$
NMZ532>537-262000-
EASTCENTRAL PLAINS

CITY           SKY/WX    TMP DP  RH WIND       PRES   REMARKS
TUCUMCARI      FAIR      90  44  20 E3        29.90F
CANNON AFB     NOT AVBL
CLOVIS AIRPORT FAIR      91  40  16 S8        29.96F

$$
NMZ028-029-538-262000-
SOUTHEAST PLAINS

CITY           SKY/WX    TMP DP  RH WIND       PRES   REMARKS
ROSWELL        FAIR      96  20   6 S8        29.90F
ARTESIA        FAIR      97  25   7 VRB6G14   29.90F
CARLSBAD       FAIR     101  23   6 SE12      29.86F
HOBBS          SUNNY     99  21   6 S15       29.91F


$$




USA.gov is the U.S. government's official web portal to all federal, state and local government web resources and services.